• In Latvia
  • List of Countries
  • For 7 days
  • Water Temperature
  • Satellite Maps
  • Weather Map
  • Weather Widgets
  • user-avatar
    Login

    Hourly Weather Oran

    Today, 23 November, Thursday

    Time Temperature Precipitation Wind Pressure Humidity
    00:00 +15°C° 0 mm 2 mps 752 mmHg 37%
    01:00 +15°C° 0 mm 2 mps 752 mmHg 38%
    02:00 +14°C° 0 mm 2 mps 752 mmHg 38%
    03:00 +14°C° 0 mm 2 mps 752 mmHg 39%
    04:00 +14°C° 0 mm 2 mps 752 mmHg 39%
    05:00 +13°C° 0 mm 2 mps 753 mmHg 39%
    06:00 +13°C° 0 mm 1 mps 753 mmHg 39%
    07:00 +15°C° 0 mm 2 mps 753 mmHg 34%
    08:00 +17°C° 0 mm 2 mps 754 mmHg 29%
    09:00 +19°C° 0 mm 2 mps 754 mmHg 24%
    10:00 +20°C° 0 mm 2 mps 755 mmHg 22%
    11:00 +21°C° 0 mm 2 mps 755 mmHg 21%
    12:00 +23°C° 0 mm 1 mps 755 mmHg 20%
    13:00 +23°C° 0 mm 1 mps 755 mmHg 20%
    14:00 +24°C° 0 mm 1 mps 754 mmHg 19%
    15:00 +24°C° 0 mm 1 mps 754 mmHg 19%
    16:00 +22°C° 0 mm 1 mps 754 mmHg 24%
    17:00 +20°C° 0 mm 1 mps 755 mmHg 29%
    18:00 +16°C° 0 mm 0 mps 755 mmHg 33%
    19:00 +18°C° 0 mm 1 mps 755 mmHg 33%
    20:00 +16°C° 0 mm 1 mps 755 mmHg 33%
    21:00 +16°C° 0 mm 1 mps 756 mmHg 33%
    22:00 +16°C° 0 mm 1 mps 755 mmHg 32%
    23:00 +16°C° 0 mm 1 mps 755 mmHg 31%

    Tomorrow, 24 November, Friday

    Time Temperature Precipitation Wind Pressure Humidity
    00:00 +15°C° 0 mm 2 mps 755 mmHg 30%
    01:00 +15°C° 0 mm 2 mps 755 mmHg 29%
    02:00 +15°C° 0 mm 1 mps 755 mmHg 28%
    03:00 +15°C° 0 mm 1 mps 755 mmHg 27%
    04:00 +14°C° 0 mm 1 mps 755 mmHg 27%
    05:00 +14°C° 0 mm 1 mps 755 mmHg 26%
    06:00 +14°C° 0 mm 1 mps 755 mmHg 25%
    07:00 +16°C° 0 mm 2 mps 755 mmHg 23%
    08:00 +18°C° 0 mm 2 mps 755 mmHg 20%
    09:00 +20°C° 0 mm 2 mps 756 mmHg 17%
    10:00 +22°C° 0 mm 1 mps 756 mmHg 16%
    11:00 +24°C° 0 mm 1 mps 755 mmHg 14%
    12:00 +23°C° 0 mm 0 mps 755 mmHg 13%
    13:00 +25°C° 0 mm 1 mps 755 mmHg 13%
    14:00 +25°C° 0 mm 1 mps 755 mmHg 13%
    15:00 +26°C° 0 mm 1 mps 754 mmHg 13%
    16:00 +24°C° 0 mm 1 mps 754 mmHg 15%
    17:00 +22°C° 0 mm 1 mps 754 mmHg 18%
    18:00 +20°C° 0 mm 1 mps 755 mmHg 21%
    19:00 +19°C° 0 mm 1 mps 755 mmHg 22%
    20:00 +19°C° 0 mm 1 mps 755 mmHg 23%
    21:00 +18°C° 0 mm 1 mps 755 mmHg 24%
    22:00 +18°C° 0 mm 1 mps 755 mmHg 23%
    23:00 +18°C° 0 mm 1 mps 755 mmHg 23%

    Day after tomorrow, 25 November, Saturday

    Time Temperature Precipitation Wind Pressure Humidity
    00:00 +16°C° 0 mm 1 mps 755 mmHg 23%
    01:00 +16°C° 0 mm 1 mps 755 mmHg 23%
    02:00 +16°C° 0 mm 1 mps 755 mmHg 23%
    03:00 +16°C° 0 mm 1 mps 754 mmHg 23%
    04:00 +15°C° 0 mm 1 mps 754 mmHg 22%
    05:00 +15°C° 0 mm 1 mps 755 mmHg 22%
    06:00 +15°C° 0 mm 1 mps 755 mmHg 22%
    07:00 +18°C° 0 mm 1 mps 755 mmHg 20%
    08:00 +20°C° 0 mm 1 mps 755 mmHg 18%
    09:00 +21°C° 0 mm 2 mps 756 mmHg 15%
    10:00 +23°C° 0 mm 1 mps 756 mmHg 14%
    11:00 +25°C° 0 mm 1 mps 755 mmHg 13%
    12:00 +24°C° 0 mm 0 mps 755 mmHg 12%
    13:00 +26°C° 0 mm 1 mps 755 mmHg 13%
    14:00 +26°C° 0 mm 1 mps 754 mmHg 13%
    15:00 +26°C° 0 mm 1 mps 754 mmHg 13%
    16:00 +24°C° 0 mm 2 mps 754 mmHg 15%
    17:00 +23°C° 0 mm 2 mps 754 mmHg 18%
    18:00 +20°C° 0 mm 2 mps 755 mmHg 20%
    19:00 +19°C° 0 mm 2 mps 755 mmHg 21%
    20:00 +19°C° 0 mm 2 mps 755 mmHg 22%
    21:00 +18°C° 0 mm 2 mps 756 mmHg 23%
    22:00 +18°C° 0 mm 2 mps 756 mmHg 23%
    23:00 +18°C° 0 mm 2 mps 756 mmHg 22%

    26 November, Sunday

    Time Temperature Precipitation Wind Pressure Humidity
    00:00 +18°C° 0 mm 1 mps 755 mmHg 22%
    01:00 +17°C° 0 mm 2 mps 755 mmHg 22%
    02:00 +17°C° 0 mm 2 mps 755 mmHg 22%
    03:00 +17°C° 0 mm 2 mps 755 mmHg 23%
    04:00 +17°C° 0 mm 3 mps 755 mmHg 24%
    05:00 +17°C° 0 mm 3 mps 755 mmHg 26%
    06:00 +17°C° 0 mm 3 mps 756 mmHg 28%
    07:00 +18°C° 0 mm 3 mps 756 mmHg 25%
    08:00 +20°C° 0 mm 3 mps 757 mmHg 23%
    09:00 +21°C° 0 mm 3 mps 757 mmHg 21%
    10:00 +22°C° 0 mm 3 mps 757 mmHg 19%
    11:00 +25°C° 0 mm 3 mps 757 mmHg 18%
    12:00 +26°C° 0 mm 3 mps 757 mmHg 16%
    13:00 +26°C° 0 mm 4 mps 756 mmHg 18%
    14:00 +25°C° 0 mm 5 mps 756 mmHg 21%
    15:00 +25°C° 0 mm 5 mps 756 mmHg 23%
    16:00 +22°C° 0 mm 5 mps 756 mmHg 30%
    17:00 +21°C° 0 mm 4 mps 757 mmHg 36%
    18:00 +19°C° 0 mm 4 mps 757 mmHg 43%
    19:00 +18°C° 0 mm 4 mps 757 mmHg 46%
    20:00 +18°C° 0 mm 4 mps 757 mmHg 49%
    21:00 +17°C° 0 mm 3 mps 758 mmHg 53%
    22:00 +17°C° 0 mm 3 mps 758 mmHg 55%
    23:00 +16°C° 0 mm 3 mps 757 mmHg 56%

    27 November, Monday

    Time Temperature Precipitation Wind Pressure Humidity
    00:00 +16°C° 0 mm 3 mps 757 mmHg 58%
    01:00 +14°C° 0 mm 3 mps 757 mmHg 59%
    02:00 +14°C° 0 mm 3 mps 757 mmHg 60%
    03:00 +15°C° 0 mm 2 mps 757 mmHg 61%
    04:00 +15°C° 0 mm 2 mps 757 mmHg 61%
    05:00 +14°C° 0 mm 2 mps 757 mmHg 61%
    06:00 +14°C° 0 mm 2 mps 757 mmHg 61%
    07:00 +16°C° 0 mm 2 mps 757 mmHg 54%
    08:00 +18°C° 0 mm 2 mps 757 mmHg 46%
    09:00 +20°C° 0 mm 2 mps 757 mmHg 39%
    10:00 +21°C° 0 mm 2 mps 757 mmHg 37%
    11:00 +21°C° 0 mm 2 mps 757 mmHg 36%
    12:00 +22°C° 0 mm 3 mps 757 mmHg 34%
    13:00 +22°C° 0 mm 3 mps 756 mmHg 36%
    14:00 +22°C° 0 mm 3 mps 756 mmHg 37%
    15:00 +22°C° 0 mm 3 mps 756 mmHg 39%
    16:00 +21°C° 0 mm 2 mps 756 mmHg 45%
    17:00 +20°C° 0 mm 2 mps 756 mmHg 50%
    18:00 +18°C° 0 mm 2 mps 756 mmHg 56%
    19:00 +19°C° 0 mm 1 mps 756 mmHg 60%
    20:00 +18°C° 0 mm 1 mps 756 mmHg 63%
    21:00 +16°C° 0 mm 1 mps 756 mmHg 67%
    22:00 +16°C° 0 mm 1 mps 756 mmHg 65%
    23:00 +16°C° 0 mm 1 mps 756 mmHg 64%

    28 November, Tuesday

    Time Temperature Precipitation Wind Pressure Humidity
    00:00 +16°C° 0 mm 1 mps 755 mmHg 62%
    01:00 +16°C° 0 mm 1 mps 755 mmHg 64%
    02:00 +15°C° 0 mm 1 mps 755 mmHg 65%
    03:00 +15°C° 0 mm 1 mps 754 mmHg 66%
    04:00 +15°C° 0 mm 1 mps 754 mmHg 66%
    05:00 +15°C° 0 mm 2 mps 754 mmHg 65%
    06:00 +15°C° 0 mm 2 mps 754 mmHg 64%
    07:00 +17°C° 0 mm 2 mps 754 mmHg 55%
    08:00 +19°C° 0 mm 1 mps 754 mmHg 46%
    09:00 +21°C° 0 mm 1 mps 754 mmHg 37%
    10:00 +23°C° 0 mm 1 mps 753 mmHg 33%
    11:00 +24°C° 0 mm 1 mps 753 mmHg 30%
    12:00 +25°C° 0 mm 1 mps 752 mmHg 26%
    13:00 +25°C° 0 mm 1 mps 752 mmHg 28%
    14:00 +25°C° 0 mm 1 mps 751 mmHg 29%
    15:00 +25°C° 0 mm 2 mps 751 mmHg 30%
    16:00 +24°C° 0 mm 2 mps 750 mmHg 37%
    17:00 +22°C° 0 mm 1 mps 750 mmHg 43%
    18:00 +20°C° 0 mm 1 mps 750 mmHg 50%
    19:00 +19°C° 0 mm 2 mps 750 mmHg 50%
    20:00 +18°C° 0 mm 2 mps 750 mmHg 51%
    21:00 +18°C° 0 mm 2 mps 750 mmHg 51%
    22:00 +18°C° 0 mm 3 mps 750 mmHg 51%
    23:00 +18°C° 0 mm 3 mps 749 mmHg 52%
    Show more